Hourly Weather Rusaki

Today, 15 April, Thursday

Time Temperature Precipitation Wind Pressure Humidity
00:00 0°C° 0.3 mm 5 mps 749 mmHg 98%
01:00 0°C° 0.3 mm 4 mps 749 mmHg 98%
02:00 +1°C° 0 mm 4 mps 749 mmHg 97%
03:00 +1°C° 0.3 mm 4 mps 749 mmHg 97%
04:00 +3°C° 0.3 mm 4 mps 749 mmHg 97%
05:00 +3°C° 0.3 mm 4 mps 749 mmHg 98%
06:00 +3°C° 0.3 mm 4 mps 749 mmHg 98%
07:00 +3°C° 0.3 mm 4 mps 749 mmHg 98%
08:00 +4°C° 0.3 mm 4 mps 749 mmHg 98%
09:00 +4°C° 0.1 mm 3 mps 749 mmHg 97%
10:00 +4°C° 0.1 mm 3 mps 750 mmHg 96%
11:00 +4°C° 0.1 mm 3 mps 750 mmHg 95%
12:00 +5°C° 0 mm 3 mps 750 mmHg 94%
13:00 +5°C° 0 mm 3 mps 750 mmHg 93%
14:00 +5°C° 0 mm 4 mps 750 mmHg 92%
15:00 +5°C° 0 mm 4 mps 750 mmHg 92%
16:00 +5°C° 0 mm 4 mps 750 mmHg 91%
17:00 +5°C° 0 mm 4 mps 750 mmHg 90%
18:00 +4°C° 0.7 mm 4 mps 750 mmHg 92%
19:00 +4°C° 0.7 mm 4 mps 750 mmHg 94%
20:00 +3°C° 0.7 mm 4 mps 750 mmHg 95%
21:00 +3°C° 0.4 mm 4 mps 750 mmHg 95%
22:00 +3°C° 0.4 mm 4 mps 749 mmHg 95%
23:00 +3°C° 0.4 mm 4 mps 749 mmHg 95%

Tomorrow, 16 April, Friday

Time Temperature Precipitation Wind Pressure Humidity
00:00 +3°C° 0.2 mm 4 mps 749 mmHg 95%
01:00 +3°C° 0.2 mm 4 mps 748 mmHg 95%
02:00 +3°C° 0.2 mm 4 mps 748 mmHg 95%
03:00 +2°C° 0.2 mm 5 mps 748 mmHg 96%
04:00 +2°C° 0.2 mm 5 mps 748 mmHg 96%
05:00 +2°C° 0.2 mm 5 mps 747 mmHg 96%
06:00 +2°C° 0.6 mm 5 mps 747 mmHg 96%
07:00 +4°C° 0.6 mm 4 mps 747 mmHg 96%
08:00 +4°C° 0.6 mm 4 mps 747 mmHg 96%
09:00 +5°C° 0 mm 4 mps 748 mmHg 95%
10:00 +5°C° 0 mm 4 mps 748 mmHg 94%
11:00 +6°C° 0 mm 4 mps 748 mmHg 93%
12:00 +7°C° 0.1 mm 4 mps 748 mmHg 88%
13:00 +10°C° 0.1 mm 4 mps 748 mmHg 84%
14:00 +11°C° 0.1 mm 4 mps 748 mmHg 79%
15:00 +10°C° 0.5 mm 5 mps 748 mmHg 81%
16:00 +10°C° 0.5 mm 5 mps 748 mmHg 82%
17:00 +10°C° 0.5 mm 5 mps 748 mmHg 84%
18:00 +9°C° 0.3 mm 5 mps 748 mmHg 86%
19:00 +8°C° 0.3 mm 5 mps 749 mmHg 89%
20:00 +8°C° 0.3 mm 5 mps 749 mmHg 91%
21:00 +7°C° 0 mm 4 mps 749 mmHg 92%
22:00 +7°C° 0 mm 3 mps 749 mmHg 93%
23:00 +5°C° 0 mm 3 mps 749 mmHg 94%

Day after tomorrow, 17 April, Saturday

Time Temperature Precipitation Wind Pressure Humidity
00:00 +5°C° 0 mm 3 mps 750 mmHg 95%
01:00 +5°C° 0 mm 3 mps 750 mmHg 96%
02:00 +5°C° 0 mm 3 mps 750 mmHg 97%
03:00 +5°C° 0.3 mm 3 mps 750 mmHg 97%
04:00 +5°C° 0.3 mm 3 mps 750 mmHg 97%
05:00 +7°C° 0.3 mm 3 mps 750 mmHg 97%
06:00 +7°C° 0 mm 3 mps 751 mmHg 94%
07:00 +7°C° 0 mm 3 mps 751 mmHg 92%
08:00 +8°C° 0 mm 3 mps 751 mmHg 90%
09:00 +7°C° 0 mm 4 mps 752 mmHg 87%
10:00 +8°C° 0 mm 4 mps 752 mmHg 85%
11:00 +8°C° 0 mm 4 mps 752 mmHg 82%
12:00 +10°C° 0 mm 4 mps 752 mmHg 77%
13:00 +11°C° 0 mm 4 mps 753 mmHg 72%
14:00 +11°C° 0 mm 4 mps 753 mmHg 68%
15:00 +11°C° 0 mm 4 mps 753 mmHg 66%
16:00 +12°C° 0 mm 3 mps 753 mmHg 65%
17:00 +12°C° 0 mm 3 mps 753 mmHg 64%
18:00 +11°C° 0 mm 3 mps 753 mmHg 69%
19:00 +10°C° 0 mm 2 mps 753 mmHg 74%
20:00 +10°C° 0 mm 1 mps 753 mmHg 78%
21:00 +8°C° 0 mm 2 mps 753 mmHg 81%
22:00 +8°C° 0 mm 2 mps 753 mmHg 83%
23:00 +8°C° 0 mm 2 mps 753 mmHg 85%

18 April, Sunday

Time Temperature Precipitation Wind Pressure Humidity
00:00 +8°C° 0.2 mm 2 mps 753 mmHg 88%
01:00 +8°C° 0.2 mm 2 mps 753 mmHg 91%
02:00 +8°C° 0.2 mm 2 mps 753 mmHg 94%
03:00 +8°C° 0.3 mm 2 mps 753 mmHg 95%
04:00 +8°C° 0.3 mm 2 mps 753 mmHg 96%
05:00 +8°C° 0.3 mm 2 mps 752 mmHg 96%
06:00 +8°C° 0.8 mm 2 mps 752 mmHg 96%
07:00 +8°C° 0.8 mm 2 mps 752 mmHg 96%
08:00 +8°C° 0.8 mm 3 mps 752 mmHg 95%
09:00 +9°C° 0.1 mm 3 mps 752 mmHg 89%
10:00 +11°C° 0.1 mm 4 mps 752 mmHg 83%
11:00 +12°C° 0.1 mm 4 mps 753 mmHg 77%
12:00 +12°C° 0.2 mm 4 mps 753 mmHg 76%
13:00 +13°C° 0.2 mm 5 mps 752 mmHg 74%
14:00 +13°C° 0.2 mm 5 mps 752 mmHg 72%
15:00 +13°C° 0.2 mm 5 mps 753 mmHg 74%
16:00 +12°C° 0.2 mm 4 mps 753 mmHg 75%
17:00 +12°C° 0.2 mm 4 mps 753 mmHg 77%
18:00 +11°C° 0.1 mm 4 mps 753 mmHg 80%
19:00 +11°C° 0.1 mm 3 mps 753 mmHg 83%
20:00 +10°C° 0.1 mm 3 mps 753 mmHg 86%
21:00 +10°C° 0.1 mm 3 mps 753 mmHg 88%
22:00 +9°C° 0.1 mm 3 mps 754 mmHg 89%
23:00 +9°C° 0.1 mm 3 mps 754 mmHg 90%

19 April, Monday

Time Temperature Precipitation Wind Pressure Humidity
00:00 +9°C° 0.1 mm 3 mps 754 mmHg 91%
01:00 +9°C° 0.1 mm 3 mps 754 mmHg 92%
02:00 +8°C° 0.1 mm 3 mps 754 mmHg 92%
03:00 +8°C° 0 mm 3 mps 754 mmHg 92%
04:00 +8°C° 0 mm 3 mps 754 mmHg 92%
05:00 +8°C° 0 mm 2 mps 754 mmHg 91%
06:00 +9°C° 0.1 mm 3 mps 754 mmHg 87%
07:00 +8°C° 0.1 mm 4 mps 754 mmHg 83%
08:00 +9°C° 0.1 mm 5 mps 754 mmHg 78%
09:00 +10°C° 0 mm 5 mps 754 mmHg 69%
10:00 +11°C° 0 mm 6 mps 754 mmHg 60%
11:00 +13°C° 0 mm 6 mps 754 mmHg 50%
12:00 +13°C° 0 mm 6 mps 754 mmHg 51%
13:00 +13°C° 0 mm 6 mps 754 mmHg 52%
14:00 +13°C° 0 mm 5 mps 753 mmHg 53%
15:00 +13°C° 0 mm 5 mps 753 mmHg 55%
16:00 +13°C° 0 mm 5 mps 753 mmHg 57%
17:00 +13°C° 0 mm 5 mps 753 mmHg 59%
18:00 +12°C° 0 mm 5 mps 753 mmHg 62%
19:00 +11°C° 0 mm 4 mps 753 mmHg 66%
20:00 +10°C° 0 mm 4 mps 753 mmHg 70%
21:00 +9°C° 0 mm 3 mps 753 mmHg 75%
22:00 +8°C° 0 mm 3 mps 753 mmHg 80%
23:00 +7°C° 0 mm 3 mps 753 mmHg 85%

20 April, Tuesday

Time Temperature Precipitation Wind Pressure Humidity
00:00 +7°C° 0 mm 3 mps 753 mmHg 82%
01:00 +7°C° 0 mm 3 mps 753 mmHg 79%
02:00 +7°C° 0 mm 3 mps 753 mmHg 76%
03:00 +7°C° 0 mm 3 mps 752 mmHg 77%
04:00 +7°C° 0 mm 3 mps 752 mmHg 78%
05:00 +6°C° 0 mm 4 mps 752 mmHg 79%
06:00 +7°C° 0 mm 4 mps 752 mmHg 76%
07:00 +7°C° 0 mm 4 mps 752 mmHg 74%
08:00 +8°C° 0 mm 4 mps 752 mmHg 72%
09:00 +9°C° 0 mm 5 mps 752 mmHg 66%
10:00 +10°C° 0 mm 5 mps 751 mmHg 59%
11:00 +11°C° 0 mm 6 mps 751 mmHg 53%
12:00 +11°C° 0 mm 6 mps 751 mmHg 54%
13:00 +12°C° 0 mm 5 mps 751 mmHg 56%
14:00 +12°C° 0 mm 5 mps 751 mmHg 57%
15:00 +12°C° 0 mm 4 mps 750 mmHg 56%
16:00 +12°C° 0 mm 4 mps 750 mmHg 54%
17:00 +12°C° 0 mm 4 mps 750 mmHg 53%
18:00 +12°C° 0 mm 3 mps 750 mmHg 56%
19:00 +11°C° 0 mm 3 mps 749 mmHg 59%
20:00 +10°C° 0 mm 2 mps 749 mmHg 62%
21:00 +9°C° 0 mm 2 mps 749 mmHg 65%
22:00 +8°C° 0 mm 2 mps 749 mmHg 69%
23:00 +7°C° 0 mm 2 mps 749 mmHg 72%
Show more